PDT,Max TemperatureF,Mean TemperatureF,Min TemperatureF,Max Dew PointF,MeanDew PointF,Min DewpointF,Max Humidity, Mean Humidity, Min Humidity, Max Sea Level PressureIn, Mean Sea Level PressureIn, Min Sea Level PressureIn, Max VisibilityMiles, Mean VisibilityMiles, Min VisibilityMiles, Max Wind SpeedMPH, Mean Wind SpeedMPH, Max Gust SpeedMPH,PrecipitationIn, CloudCover, Events, WindDirDegrees
2013-8-1,92,72,52,49,44,30,89,50,11,30.06,29.98,29.89,10,10,10,24,11,79,0.00,0,,310
2013-8-2,94,71,48,49,43,20,86,47,7,29.98,29.92,29.85,10,10,10,50,7,92,0.00,0,,278
2013-8-3,87,69,50,49,46,28,93,53,12,30.01,29.95,29.88,10,9,4,23,7,44,0.00,2,,209
2013-8-4,88,70,51,52,48,38,96,57,17,30.02,29.97,29.90,10,9,2,23,7,33,0.00,3,,231
2013-8-5,95,74,52,52,48,36,89,51,13,30.03,29.96,29.87,10,10,9,21,6,24,0.00,2,,274
2013-8-6,81,67,53,51,50,48,89,62,35,30.05,29.99,29.95,10,10,8,25,9,32,0.00,2,,239
2013-8-7,84,69,54,52,51,45,93,63,32,30.11,30.04,29.96,10,10,10,21,9,25,0.00,4,,280
2013-8-8,85,70,54,53,50,44,93,59,25,30.02,29.97,29.88,10,10,10,21,9,,0.00,2,,256
2013-8-9,88,71,53,52,51,47,93,59,25,29.98,29.93,29.87,10,10,10,20,8,22,0.00,2,,260
2013-8-10,90,73,56,54,51,43,86,53,19,30.04,29.98,29.91,10,10,2,18,9,54,0.00,3,,303
2013-8-11,94,75,55,54,50,42,93,56,18,30.03,29.96,29.86,10,10,4,20,8,23,0.00,2,,289
2013-8-12,96,74,52,52,47,34,93,53,12,29.99,29.93,29.86,10,10,10,21,7,26,0.00,0,,292
2013-8-13,102,78,53,49,43,34,72,41,10,29.99,29.92,29.83,10,10,10,22,5,26,0.00,0,,293
2013-8-14,103,80,56,52,44,29,77,43,8,29.97,29.90,29.81,10,10,10,22,7,26,0.00,0,,317
2013-8-15,104,79,54,59,47,19,75,40,5,29.95,29.89,29.82,10,10,10,18,7,20,0.00,0,,313
2013-8-16,102,80,57,59,52,40,86,49,12,29.96,29.92,29.84,10,10,10,20,5,49,0.00,0,,290
2013-8-17,101,80,59,55,48,32,72,41,9,29.97,29.89,29.80,10,10,10,26,9,32,0.00,0,,312
2013-8-18,101,80,58,56,50,40,78,46,13,29.89,29.83,29.73,10,10,10,20,4,23,0.00,0,,261
2013-8-19,95,78,60,53,48,45,63,41,19,29.89,29.85,29.81,10,10,10,22,8,25,0.00,0,,222
2013-8-20,94,75,56,53,48,35,80,47,14,29.91,29.86,29.81,10,10,10,22,6,24,0.00,0,,214
2013-8-21,90,70,50,52,47,39,86,52,17,29.93,29.89,29.83,10,10,10,16,5,20,0.00,0,,233
2013-8-22,87,69,51,52,50,46,100,64,27,29.96,29.92,29.83,10,8,0,20,7,22,0.00,2,Fog,237
2013-8-23,95,75,54,54,50,38,93,54,14,29.92,29.85,29.74,10,10,5,23,7,30,0.00,2,,296
2013-8-24,96,75,53,55,49,34,86,49,11,29.89,29.84,29.74,10,10,8,22,8,26,0.00,1,,316
2013-8-25,93,74,55,56,53,45,86,53,20,29.94,29.89,29.84,10,10,10,18,6,21,0.00,0,,254
2013-8-26,95,76,57,56,53,41,93,56,18,30.00,29.92,29.82,10,10,2,16,7,,0.00,3,,294
2013-8-27,96,76,56,52,49,40,72,43,14,29.88,29.83,29.77,10,10,10,18,6,22,0.00,1,,262
2013-8-28,97,76,55,57,50,33,80,46,11,29.93,29.86,29.82,10,10,10,18,7,23,0.00,0,,268
2013-8-29,99,78,56,57,54,47,100,59,17,30.04,29.97,29.88,10,8,0,21,8,25,0.00,3,Fog,314
2013-8-30,102,81,60,55,51,47,73,45,16,30.01,29.95,29.86,10,10,10,16,5,20,0.00,0,,302
2013-8-31,94,79,64,64,55,47,64,45,26,29.96,29.92,29.87,10,10,10,18,5,23,0.00,0,,228